Weather in Muraptal

Russia / Republic of Bashkortostan     52°26′48″N   55°48′49″E
temp.,
°C
wind,
m/s
gust,
m/s
humid.,
%
clouds,
%
prec.,
mm/h
press.,
hPa
HPBL,
m
6 august, fri
fri623:00+22nnw494846 0.0 1009191
02:00+21n51167100 0.0 1010371
05:00+19n5107589 0.0 1011330
08:00+20n71167100 0.0 1012516
11:00+25n79400 0.0 10121331
14:00+28n78280 0.0 10112309
17:00+28n78265 0.0 10112654
20:00+26n69302 0.0 1012946
7 august, sat
sat723:00+20n4124512 0.0 1013310
02:00+16ne385898 0.0 1014123
05:00+14n34635 0.0 101544
08:00+17nne47465 0.0 1016253
11:00+23n56279 0.0 10161224
14:00+27n66202 0.0 10151830
17:00+28n67190 0.0 10152179
20:00+25n58250 0.0 1016482
8 august, sun
sun823:00+18nne33400 0.0 101638
02:00+16nne34480 0.0 101762
05:00+14n34584 0.0 101951
08:00+17nne59485 0.0 1019430
11:00+23n68304 0.0 10191238
14:00+27n78210 0.0 10181794
17:00+28n78170 0.0 10171950
20:00+25nne59270 0.0 1018495
9 august, mon
mon923:00+18ne34543 0.0 101948
02:00+16nne336977 0.0 102025
05:00+14nne227797 0.0 102117
08:00+19nne236040 0.0 1021227
11:00+25nne3341100 0.0 10201159
14:00+29n5527100 0.0 10201760
17:00+30n5622100 0.0 10191889
20:00+27nne582674 0.0 1019355
10 august, tue
tue1023:00+20ne384571 0.0 1020126
02:00+18nne3353100 0.0 102027
05:00+16nne225699 0.0 102022
08:00+21ne224349 0.0 1020170
11:00+29ene1227100 0.0 10191138
14:00+33nne1221100 0.0 10172439
17:00+33n2220100 0.0 10153066
20:00+30nw33251 0.0 101552